• Em Portugal
  • Lista de países
  • Para 7 dias
  • Temperatura da água
  • Mapas de satélite
  • Mapa do tempo
  • Widgets de tempo
  • user-avatar
    Iniciar Sessão

    Previsão horária em Trypolis

    Hoje, 23 Maio, Quarta-feira

    Tempo Temperatura Precipitação Vento Pressão Humidade
    00:00 +22°C° 0 mm 4 m/s 761 mmHg 81%
    01:00 +22°C° 0 mm 4 m/s 761 mmHg 80%
    02:00 +22°C° 0 mm 3 m/s 761 mmHg 81%
    03:00 +21°C° 0 mm 3 m/s 761 mmHg 82%
    04:00 +21°C° 0 mm 3 m/s 761 mmHg 83%
    05:00 +21°C° 0 mm 3 m/s 761 mmHg 81%
    06:00 +21°C° 0 mm 3 m/s 762 mmHg 80%
    07:00 +22°C° 0 mm 3 m/s 762 mmHg 77%
    08:00 +24°C° 0 mm 3 m/s 762 mmHg 69%
    09:00 +26°C° 0 mm 3 m/s 763 mmHg 62%
    10:00 +27°C° 0 mm 3 m/s 763 mmHg 55%
    11:00 +28°C° 0 mm 4 m/s 763 mmHg 50%
    12:00 +29°C° 0 mm 4 m/s 763 mmHg 46%
    13:00 +30°C° 0 mm 4 m/s 763 mmHg 40%
    14:00 +30°C° 0 mm 4 m/s 763 mmHg 40%
    15:00 +30°C° 0 mm 5 m/s 763 mmHg 40%
    16:00 +30°C° 0 mm 5 m/s 763 mmHg 40%
    17:00 +29°C° 0 mm 5 m/s 763 mmHg 44%
    18:00 +28°C° 0 mm 5 m/s 763 mmHg 47%
    19:00 +26°C° 0 mm 5 m/s 763 mmHg 50%
    20:00 +26°C° 0 mm 5 m/s 763 mmHg 51%
    21:00 +25°C° 0 mm 4 m/s 763 mmHg 52%
    22:00 +25°C° 0 mm 4 m/s 764 mmHg 53%
    23:00 +25°C° 0 mm 4 m/s 764 mmHg 53%

    Amanhã, 24 Maio, Quinta-feira

    Tempo Temperatura Precipitação Vento Pressão Humidade
    00:00 +25°C° 0 mm 3 m/s 764 mmHg 54%
    01:00 +24°C° 0 mm 3 m/s 764 mmHg 54%
    02:00 +24°C° 0 mm 3 m/s 763 mmHg 54%
    03:00 +24°C° 0 mm 3 m/s 763 mmHg 54%
    04:00 +24°C° 0 mm 3 m/s 763 mmHg 54%
    05:00 +25°C° 0 mm 3 m/s 763 mmHg 49%
    06:00 +25°C° 0 mm 3 m/s 763 mmHg 44%
    07:00 +26°C° 0 mm 3 m/s 763 mmHg 39%
    08:00 +28°C° 0 mm 3 m/s 763 mmHg 33%
    09:00 +30°C° 0 mm 4 m/s 763 mmHg 27%
    10:00 +33°C° 0 mm 4 m/s 763 mmHg 21%
    11:00 +34°C° 0 mm 4 m/s 763 mmHg 19%
    12:00 +35°C° 0 mm 5 m/s 763 mmHg 18%
    13:00 +36°C° 0 mm 5 m/s 762 mmHg 16%
    14:00 +36°C° 0 mm 6 m/s 762 mmHg 18%
    15:00 +36°C° 0 mm 6 m/s 761 mmHg 19%
    16:00 +36°C° 0 mm 7 m/s 761 mmHg 21%
    17:00 +34°C° 0 mm 7 m/s 761 mmHg 26%
    18:00 +32°C° 0 mm 7 m/s 761 mmHg 32%
    19:00 +29°C° 0 mm 7 m/s 761 mmHg 37%
    20:00 +28°C° 0 mm 6 m/s 761 mmHg 39%
    21:00 +28°C° 0 mm 6 m/s 761 mmHg 41%
    22:00 +27°C° 0 mm 5 m/s 762 mmHg 43%
    23:00 +27°C° 0 mm 5 m/s 762 mmHg 43%

    Depois de amanhã, 25 Maio, Sexta-feira

    Tempo Temperatura Precipitação Vento Pressão Humidade
    00:00 +26°C° 0 mm 4 m/s 761 mmHg 44%
    01:00 +26°C° 0 mm 4 m/s 761 mmHg 45%
    02:00 +26°C° 0 mm 3 m/s 761 mmHg 45%
    03:00 +25°C° 0 mm 3 m/s 761 mmHg 46%
    04:00 +25°C° 0 mm 3 m/s 761 mmHg 46%
    05:00 +26°C° 0 mm 2 m/s 761 mmHg 42%
    06:00 +27°C° 0 mm 2 m/s 761 mmHg 39%
    07:00 +28°C° 0 mm 2 m/s 761 mmHg 35%
    08:00 +29°C° 0 mm 2 m/s 761 mmHg 32%
    09:00 +31°C° 0 mm 2 m/s 761 mmHg 28%
    10:00 +33°C° 0 mm 3 m/s 761 mmHg 24%
    11:00 +34°C° 0 mm 3 m/s 761 mmHg 23%
    12:00 +35°C° 0 mm 4 m/s 761 mmHg 23%
    13:00 +36°C° 0 mm 4 m/s 761 mmHg 22%
    14:00 +36°C° 0 mm 5 m/s 760 mmHg 23%
    15:00 +35°C° 0 mm 5 m/s 760 mmHg 24%
    16:00 +35°C° 0 mm 6 m/s 760 mmHg 25%
    17:00 +34°C° 0 mm 6 m/s 760 mmHg 27%
    18:00 +32°C° 0 mm 5 m/s 760 mmHg 30%
    19:00 +30°C° 0 mm 5 m/s 760 mmHg 32%
    20:00 +29°C° 0 mm 5 m/s 760 mmHg 33%
    21:00 +29°C° 0 mm 4 m/s 761 mmHg 34%
    22:00 +28°C° 0 mm 4 m/s 761 mmHg 35%
    23:00 +28°C° 0 mm 4 m/s 761 mmHg 36%

    26 Maio, Sábado

    Tempo Temperatura Precipitação Vento Pressão Humidade
    00:00 +27°C° 0 mm 3 m/s 761 mmHg 37%
    01:00 +27°C° 0 mm 3 m/s 761 mmHg 37%
    02:00 +26°C° 0 mm 3 m/s 760 mmHg 38%
    03:00 +26°C° 0 mm 3 m/s 760 mmHg 39%
    04:00 +25°C° 0 mm 3 m/s 760 mmHg 40%
    05:00 +26°C° 0 mm 3 m/s 760 mmHg 38%
    06:00 +27°C° 0 mm 3 m/s 760 mmHg 36%
    07:00 +27°C° 0 mm 3 m/s 761 mmHg 34%
    08:00 +29°C° 0 mm 3 m/s 761 mmHg 30%
    09:00 +30°C° 0 mm 2 m/s 761 mmHg 25%
    10:00 +32°C° 0 mm 2 m/s 761 mmHg 21%
    11:00 +34°C° 0 mm 3 m/s 761 mmHg 20%
    12:00 +35°C° 0 mm 4 m/s 761 mmHg 19%
    13:00 +36°C° 0 mm 5 m/s 761 mmHg 18%
    14:00 +35°C° 0 mm 5 m/s 761 mmHg 19%
    15:00 +35°C° 0 mm 6 m/s 760 mmHg 21%
    16:00 +34°C° 0 mm 6 m/s 760 mmHg 22%
    17:00 +33°C° 0 mm 5 m/s 760 mmHg 24%
    18:00 +32°C° 0 mm 5 m/s 761 mmHg 27%
    19:00 +30°C° 0 mm 5 m/s 761 mmHg 29%
    20:00 +29°C° 0 mm 5 m/s 761 mmHg 31%
    21:00 +28°C° 0 mm 5 m/s 762 mmHg 32%
    22:00 +28°C° 0 mm 5 m/s 762 mmHg 34%
    23:00 +27°C° 0 mm 5 m/s 762 mmHg 35%

    27 Maio, Domingo

    Tempo Temperatura Precipitação Vento Pressão Humidade
    00:00 +27°C° 0 mm 5 m/s 761 mmHg 35%
    01:00 +27°C° 0 mm 5 m/s 761 mmHg 36%
    02:00 +26°C° 0 mm 5 m/s 761 mmHg 38%
    03:00 +26°C° 0 mm 5 m/s 761 mmHg 40%
    04:00 +25°C° 0 mm 4 m/s 761 mmHg 41%
    05:00 +26°C° 0 mm 4 m/s 761 mmHg 39%
    06:00 +27°C° 0 mm 4 m/s 761 mmHg 37%
    07:00 +27°C° 0 mm 4 m/s 762 mmHg 35%
    08:00 +29°C° 0 mm 4 m/s 762 mmHg 31%
    09:00 +32°C° 0 mm 4 m/s 762 mmHg 26%
    10:00 +34°C° 0 mm 4 m/s 762 mmHg 21%
    11:00 +35°C° 0 mm 5 m/s 762 mmHg 20%
    12:00 +36°C° 0 mm 6 m/s 761 mmHg 18%
    13:00 +38°C° 0 mm 6 m/s 761 mmHg 16%
    14:00 +38°C° 0 mm 7 m/s 761 mmHg 18%
    15:00 +38°C° 0 mm 8 m/s 761 mmHg 20%
    16:00 +38°C° 0 mm 8 m/s 760 mmHg 22%
    17:00 +35°C° 0 mm 8 m/s 760 mmHg 27%
    18:00 +33°C° 0 mm 8 m/s 761 mmHg 32%
    19:00 +32°C° 0 mm 8 m/s 761 mmHg 37%
    20:00 +31°C° 0 mm 8 m/s 761 mmHg 39%
    21:00 +29°C° 0 mm 8 m/s 761 mmHg 41%
    22:00 +29°C° 0 mm 7 m/s 761 mmHg 43%
    23:00 +28°C° 0 mm 7 m/s 761 mmHg 45%

    28 Maio, Segunda-feira

    Tempo Temperatura Precipitação Vento Pressão Humidade
    00:00 +28°C° 0 mm 6 m/s 761 mmHg 46%
    01:00 +28°C° 0 mm 5 m/s 760 mmHg 47%
    02:00 +27°C° 0 mm 5 m/s 760 mmHg 49%
    03:00 +27°C° 0 mm 5 m/s 760 mmHg 50%
    04:00 +26°C° 0 mm 5 m/s 760 mmHg 52%
    05:00 +27°C° 0 mm 5 m/s 760 mmHg 49%
    06:00 +27°C° 0 mm 5 m/s 760 mmHg 47%
    07:00 +28°C° 0 mm 5 m/s 760 mmHg 44%
    08:00 +30°C° 0 mm 5 m/s 760 mmHg 37%
    09:00 +33°C° 0 mm 5 m/s 760 mmHg 30%
    10:00 +35°C° 0 mm 5 m/s 760 mmHg 23%
    11:00 +38°C° 0 mm 6 m/s 760 mmHg 20%
    12:00 +39°C° 0 mm 7 m/s 760 mmHg 18%
    13:00 +40°C° 0 mm 7 m/s 760 mmHg 15%
    14:00 +40°C° 0 mm 8 m/s 759 mmHg 15%
    15:00 +41°C° 0 mm 8 m/s 759 mmHg 14%
    16:00 +42°C° 0 mm 9 m/s 759 mmHg 14%
    17:00 +40°C° 0 mm 9 m/s 758 mmHg 15%
    18:00 +39°C° 0 mm 9 m/s 758 mmHg 17%
    19:00 +38°C° 0 mm 9 m/s 758 mmHg 18%
    20:00 +37°C° 0 mm 9 m/s 759 mmHg 22%
    21:00 +34°C° 0 mm 9 m/s 759 mmHg 26%
    22:00 +33°C° 0 mm 9 m/s 759 mmHg 29%
    23:00 +32°C° 0 mm 8 m/s 759 mmHg 32%
    Mostrar mais